CZ-3C DEB, 40858

Orbit data source: Space-Track

CZ-3C DEB, 40858 is space debris in HEO originally from a launch on Fri, 24 Feb 2012 UTC launched from the Xichang Space Center, China (XSC). Debris objects in space refer to the collection of defunct objects orbiting the Earth. Examples of debris include non-operational satellites, rocket bodies, and fragments generated from explosions, collisions, or faulty payload assembly.

Loading next visibility...
Identifier
40858, 2012-008Y
Orbit
HEO
Country
Flag of CNCN / PRC
Related business
Manufacturer
CALT
Mission
Spacecraft
Bus & Motor
Unknown
Mass
Unknown
Launch date (UTC)
2012-02-24 (14 years ago)
Launch vehicle
Unknown
Launch site
Xichang Space Center, China (XSC)
Object type
Payload
Rocket body
Debris
Shape & HBR
Unknown shape, 0.1 m
Radar Cross Section
Medium (>0.1 m² and <1 m²)

Expand to show TLE details & history
Last TLE update: 6 days ago

TLE from 6 days ago
0 CZ-3C DEB
1 40858U 12008Y   25334.82053942  .00000048  00000-0  31091-3 0  9995
2 40858  17.8077 139.5371 7274400  59.7208 352.5399  2.12251197 85000
Epoch: 2025-11-30T19:41Z
TLE epoch observation values (Epoch: 2025-11-30T19:41:34.605Z)
Latitude
-0°
Longitude
134.0951°
Altitude
2,441.204 km
Speed
8.649 km/s
True Right ascension
09h 17m 40s
True Declination
0° 00' 00"
Sunlit
Object was in daylight at epoch
Visualization orbit readout
Latitude
Unknown
Longitude
Unknown
Altitude
Unknown
Speed
Unknown
Apparent Right ascension
Unknown
Apparent Declination
Unknown
Sunlit
N/A
Visualization observer readout
Local Sidereal Time
06:48:29
Azimuth
Unknown
Elevation
Unknown
Doppler factor
Unknown
Orbital elements
Apogee altitude
37,811.062 km
Perigee altitude
594.15 km
Semi-major axis
25,580.743 km
Eccentricity
0.72744
Inclination
17.8077°
RAAN
139.5371°
Arg. of periapsis
59.7208°
True anomaly
301.2278°
Mean anomaly
352.5399°
Eccentric anomaly
334.78169°
Mean motion
0.53049 °/min
Orbital period
678.62 mins
BSTAR
0.00031091
Loading maneuver chart data...
Computing Atmospheric mass density...
Loading historical data...
Loading historical data...
Loading historical data...
Loading historical data...
Loading historical data...
Loading historical data...
Loading historical data...

Documentation

Showing up to 5 results
|